[Date Prev][Date Next][Thread Prev][Thread Next][Date Index][Thread Index]

[jamsat-news:1213] jas2info #168



========================   ºÇ¿·¾ðÊó   ==============================

        Last updated ¡§Sat.29-Jan.-2000 19:10 (JST) #168

====================================================================
   
  £±¡Ë¥¢¥Þ¥Á¥å¥¢ÄÌ¿®±ÒÀ±¾ðÊ󡡣ƣϥ·¥ê¡¼¥º¤Îµ°Æ»Í×ÁÇ¡¢¥Æ¥ì¥á¥È¥ê¡¢
¡¡¡¡¡¡£Ñ£Ó£Ï¤Î¾õ¶·Åù¤ò¤Þ¤È¤á¤Æ¤ß¤Þ¤·¤¿¡¥
         
 ¢£ µ°Æ»Í×ÁÇ£±¡§¡Öjamsat¡Ýkeps¡§£¹£¶£³¡×¤è¤ê              
¡¡¡¡¡¡¡¡¡¡¡¡¡¡¡¡SB KEPS @ AMSAT  $ORB00028.N
¡¡¡¡¡¡¡¡¡¡¡¡¡¡¡¡¡¡¡¡¡¡¡¡2Line Orbital Elements 00028.AMSAT

HR AMSAT ORBITAL ELEMENTS FOR AMATEUR SATELLITES IN NASA FORMAT
>FROM WA5QGD FORT WORTH,TX January 28, 2000
SEND SUBSCRIBE/UNSUBSCRIBE TO majordomo@amsat.org ONLY
BID: ORB00028.N

¡¡DECODE 2-LINE ELSETS WITH THE FOLLOWING KEY:
¡¡1 AAAAAU 00  0  0 BBBBB.BBBBBBBB  .CCCCCCCC  00000-0  00000-0 0  DDDZ
¡¡2 AAAAA EEE.EEEE FFF.FFFF GGGGGGG HHH.HHHH III.IIII JJ.JJJJJJJJKKKKKZ
¡¡KEY: A-CATALOGNUM B-EPOCHTIME C-DECAY D-ELSETNUM E-INCLINATION F-RAAN
¡¡G-ECCENTRICITY H-ARGPERIGEE I-MNANOM J-MNMOTION K-ORBITNUM Z-CHECKSUM
¡¡TO ALL RADIO AMATEURS BT
 
¡¡FO-29
¡¡1 24278U 96046B   00025.18304658  .00000042  00000-0  81707-4 0  3032
¡¡2 24278  98.5870 311.9261 0350604 239.4909 117.1194 13.52698728169820
¡¡¡¡
 ¢£ µ°Æ»Í×ÁÇ£²¡§¡Öjamsat¡Ýkeps¡§£¹£¶£²¡×¤è¤ê                         
¡¡¡¡¡¡¡¡¡¡¡¡¡¡¡¡¡¡SB KEPS @ AMSAT  $ORB00028.O
¡¡¡¡¡¡¡¡¡¡¡¡¡¡¡¡¡¡¡¡¡¡¡¡¡¡Orbital Elements  00028.OSCAR

HR AMSAT ORBITAL ELEMENTS FOR OSCAR SATELLITES
>FROM WA5QGD FORT WORTH,TX January 28, 2000
SEND SUBSCRIBE/UNSUBSCRIBE TO majordomo@amsat.org ONLY
BID: ORB00028.O
TO ALL RADIO AMATEURS BT


  Satellite: FO-29
¡¡Catalog number: 24278
¡¡Epoch time:      00025.18304658
¡¡Element set:     303
¡¡Inclination:       98.5870 deg
¡¡RA of node:       311.9261 deg
¡¡Eccentricity:    0.0350604
¡¡Arg of perigee:   239.4909 deg
¡¡Mean anomaly:     117.1194 deg
¡¡Mean motion:   13.52698728 rev/day
¡¡Decay rate:        4.2e-07 rev/day^2
¡¡Epoch rev:           16982
¡¡Checksum:              314
¡¡
-------------------¡¡¡¡¡¡µ°Æ»Í×ÁÇ¡¡¤Î¡¡Checksum¡¡ÏÀµÄ¡¡¡¡------------------------

¡¡£²¡Ë[jamsat-bb:5001]¤Ë¤ª¤¤¤Æ7N1JVW¶É¤Î Æ£ÅÄ¡¡ÃéµÁ»á¤ÎÌäÂêÄ󵯤ˤè¤ê [jamsat-bb:5003]¤Ë
¡¡¡¡¡¡JO2OXL¶É¤ÎÍî¹ç Âî»Ë»á¡¢[jamsat-bb:5004]¤ËJI1OWP¶É¤ÎÃÓÅÄ¡¡¹°¿Í»á¤¬Åê¹Æ¤µ¤ì¤Æ¤Þ¤·¤¿¤Î¤Ç
¡¡¡¡¡¡Å¾ºÜ¤µ¤»¤Æ¤¤¤¿¤À¤­¤Þ¤·¤¿.

¡ö[jamsat-bb:5001]¡¢[jamsat-bb:5003]¤Ë¤ª¤¤¤Æ

¡¡¡¡JO2OXLÍî¹ç¤Ç¤¹¡¥

¥Á¥§¥Ã¥¯¥µ¥à¤Ë¤Ä¤¤¤Æ¡¤»ä¤Î¹Í¤¨¤ò½ñ¤¤¤Æ¤ß¤Þ¤¹¡¥
¥Á¥§¥Ã¥¯¥µ¥à¤Î¥µ¥à¤Ïsum¤Ç¡¤¹ç·×¤Î°ÕÌ£¤Ç¤Ï¤Ê¤¤¤Ç¤·¤ç¤¦¤«
¤³¤³¤Ç¡¤Îã¤È¤·¤Æ¡¤

FO-20
1 20480U 90013C   00019.45637539  .00000011  00000-0  93132-4 0  1984
2 20480  99.0296 178.0611 0541268  34.4145 329.0788 12.83262090466075

¤Ç¹Í¤¨¤Æ¤ß¤Þ¤¹¡¥

¤Þ¤º¡¤¤½¤ì¤¾¤ì¤Î¹Ô¤Î¿ô»ú¤Î¤ß¤ò­¤·¤Æ¤ß¤Þ¤¹¡¥
¡Ê¹ÔƬ¤Î1¡¤2¤ò´Þ¤á¤Æ¡¥¤â¤Á¤í¤óºÇ¸å¤Î¥Á¥§¥Ã¥¯¥µ¥à¤Ï´Þ¤á¤Ê¤¤¤Ç¡¥¡Ë
¤¹¤ë¤È¡¤°ì¹ÔÌܤÏ122¡¤Æó¹ÔÌܤÏ215¤Ë¤Ê¤ê¤Þ¤¹¡¥

¼¡¤Ë¡¤
(Letters, blanks, periods, plus signs = 0; minus signs =1)
¤Ï¡¤Ê¸»ú¡¤¥¹¥Ú¡¼¥¹¡¤¥Ô¥ê¥ª¥É(.)¡¤¥×¥é¥¹µ­¹æ(+)¤Ï0¡¤¥Þ¥¤¥Ê¥¹µ­¹æ(-)¤Ï1¤ò°ÕÌ£
¤¹¤ë¤È¹Í¤¨¤Æ¡¤¤µ¤é¤Ë²Ã¤¨¤Æ¤¤¤­¤Þ¤¹¡¥
¤¹¤ë¤È¡¤°ì¹ÔÌܤˤϥޥ¤¥Ê¥¹¤¬£²¸Ä¤¢¤ë¤Î¤Ç 122+2=124¡¤Æó¹ÔÌܤˤϲ䨤ë¤â¤Î¤¬¤Ê
¤¯¡¤215¤È¤Ê¤ê¤Þ¤¹¡¥
¤³¤ì¤é¤Î¿ô»ú¤Î°ì¤Î°Ì¤ò¼è¤Ã¤Æ¤ß¤ë¤È¡¤¤½¤ì¤¾¤ì4¤È5¤Ë¤Ê¤ê¡¤¥Á¥§¥Ã¥¯¥µ¥à¤È°ìÃפ·
¤Þ¤¹¡¥
¾¤Îµ°Æ»Í×ÁǤǤϤޤÀ»î¤·¤Æ¤¤¤Þ¤»¤ó¤¬¡¤¤³¤ì¤Ç¤¤¤¤¤Î¤Ç¤Ï¤Ê¤¤¤Ç¤·¤ç¤¦¤«¡¥

¤Þ¤¿¡¤»ä¤¬»È¤Ã¤Æ¤¤¤ëWinOrbit¤Ç¤Ï¡¤¥Á¥§¥Ã¥¯¥µ¥à¤¬¤ª¤«¤·¤¤¤È¡¤¤³¤ì¤ò̵»ë¤¹¤ë¤«
¤É¤¦¤«Ê¹¤¤¤Æ¤­¤Þ¤¹¡¥
¤Þ¤Á¤¬¤Ã¤¿¥Á¥§¥Ã¥¯¥µ¥à¤ÇÀµ¾ï¤ËÆ°¤¤¤Æ¤·¤Þ¤¦¤Î¤Ï¡¤ËÜÅö¤Ë°ÕÌ£¤¬¤¢¤ê¤Þ¤»¤ó¤Í¡¥

--
Ochiai Takushi<jo2oxl@jarl.com>(Íî¹ç Âî»Ë)
call sign:JO2OXL
QTH:ÀŲ¬¸©½ÙÅì·´À¶¿åÄ®(JCG:18009)

----- Original Message -----
·ï̾ : [jamsat-bb:5001] ¼ÁÌä:µ°Æ»Í×ÁǤΠChecksum

 µ°Æ»Í×ÁÇ Two-Line Element Set Format ¤ÎËöÈø¡Ê¹Ô¤Î±¦Ã¼¡Ë¤Ë¤¢¤ë¥Á¥§¥Ã¥¯
> ¥µ¥à¤Î°ÕÌ£¤¬È½¤ê¤Þ¤»¤ó¡£¤É¤Ê¤¿¤«»þ´Ö¤Î¤¢¤ë¤È¤­¤Ë¤ª¶µ¤·¤¨´ê¤¤¤Þ¤¹¡£
>
> ¡¡¡¡¡¡¡¡¡¡¡¡¡¡¡¡¡¡¡¡¡¡¡¡¡¡¡¡¡¡       ¡¡¡¡¡¡¡¡¡¡¡¡¡¡¡¡2000/ 1/28
>     ¡¡¡¡                            7N1JVW Æ£ÅÄÃéµÁ  ²£ÉÍ»ÔÎжè
>                                     E-mail: FA7T-FJT@asahi-net.or.jp
> FO-20
> 1 20480U 90013C   00019.45637539  .00000011  00000-0  93132-4 0  1984
> 2 20480  99.0296 178.0611 0541268  34.4145 329.0788 12.83262090466075
> FO-29
> 1 24278U 96046B   00020.81901022  .00000047  00000-0  87403-4 0  3028
> 2 24278  98.5864 308.1337 0350517 250.8247 105.4650 13.52698137169236
>
> ¾åµ­Îã¤Î¤Ð¤¢¤¤±¦Ã¼¡Ê69·åÌܡˤοôÃÍ
>     4
>     5
>     8
>     6
> ¤¬¤½¤ì¤¾¤ì¤Î¹Ô¤Î Checksum ¤È²òÀ⤵¤ì¤Æ¤¤¤Þ¤¹¤¬¡¢¤³¤Î¿ôÃͤϤɤΤ褦¤Ë
>  "·è¤Þ¤ë" ¤Î¤Ç¤·¤ç¤¦¤«¡©¡¡----->¼ÁÌ䡧£±

> http://celestrak.com/columns/v04n03/index.html
>
> ¤Î [Satellite Times] ¤Ë¤Ï
>
>        Frequently Asked Questions:
>        Two-Line Element Set Format
>
> ¤¬¤¢¤Ã¤Æ¡¢checksum ¤ò´Þ¤à³Æ¹àÌܤαÑʸ²òÀ⤬Æþ¤Ã¤Æ¤¤¤Þ¤¹¡£¤½¤·¤Æ69·åÌÜ
> ¡Ê¹Ô¤Î±¦Ã¼¡Ë¤Ë¤¢¤ë¥Á¥§¥Ã¥¯¥µ¥à¤Î°ÕÌ£¤ò
>
>     69   Checksum (Modulo 10)
> ¡¡¡¡     (Letters, blanks, periods, plus signs = 0; minus signs =1)
>
> ¤Î¤è¤¦¤Ëµ­½Ò¤·¤Æ¤¢¤ê¤Þ¤¹¤¬¡¢ÉÔÊÙ¶¯¤Ç»ä¤Ë¤Ï¤è¤¯È½¤ê¤Þ¤»¤ó¡£
>
>
> ¤Þ¤¿»î¤·¤Ë¡¢¤¤¤Ä¤â»È¤Ã¤Æ¤¤¤ëµ°Æ»Í×ÁǤ«¤é£·±ÒÀ±¤ò¤¨¤é¤Ó¡¢Checksum ¤Î¿ôÃͤò
> ¤¹¤Ù¤Æ "0" ¤Ë½ñ¤­´¹¤¨¡¢µ°Æ»·×»»¥½¥Õ¥ÈQT98 Ver 4.0J ¤ËÆɤ߹þ¤ó¤Ç¼Â¹Ô¤·¤Þ¤·
> ¤¿¤¬¡¢Æɤ߹þ¤ßÆ°ºî¤â¡¢·×»»·ë²Ì¤âÊѤï¤ê¤Ê¤¯ OK ¤Ç¤·¤¿¡£
> ¤³¤ì¤Ç¤Ï¡¢Checksum ¤Î°ÕÌ£¤¬¤Ê¤¤¤È»×¤¤¤Þ¤¹¤¬¡©¡¡----->¼ÁÌ䡧£²

¡ö[jamsat-bb:5004]¤Ë¤ª¤¤¤Æ

¡¡¡¡¥Á¥§¥Ã¥¯¥µ¥à¤Ë¤Ä¤¤¤Æ¤Î»ä¤ÎÍý²ò¤Ï°Ê²¼¤ÎÄ̤ê¤Ç¤¹¡£

FO-20
1 20480U 90013C   00019.45637539  .00000011  00000-0  93132-4 0  1984
2 20480  99.0296 178.0611 0541268  34.4145 329.0788 12.83262090466075

¾åµ­¤Î2-line·Á¼°¤Îµ°Æ»Í×ÁǤξì¹ç¡¢ºÇ½é¤Î¹Ô¤Ç¤Ï¡¢³Æ¿ô»ú¤ò°ì·å¤Î¿ô»ú¤È¸«¤Æ¡¢

1+2+4+8+9+1+3+1+9+4+5+6+3+7+5+3+9+1+1+1+9+3+1+3+2+1+4+1+9+8=124

¤È·×»»¡Ê­¤·»»:sum¡Ë¤·¤Þ¤¹¡£
¤³¤³¤Ç¡¢±Ñʸ»ú¡¦¥Ö¥é¥ó¥¯¡¦¥Ô¥ê¥ª¥É¤Ï¡Ö£°¡×¡¢¥Þ¥¤¥Ê¥¹Éä¹æ¤Ï¡Ö£±¡×¤È¤·¤Þ¤¹¡£

ºÇ¸å¤ËÆÀ¤é¤ì¤¿¹ç·×¤Î²¼°ì·å¡Ê¤³¤Î¾ì¹ç¤Ï£´¡Ë¤¬¥Á¥§¥Ã¥¯¥µ¥àÃͤȤʤê¤Þ¤¹¡£

¥Á¥§¥Ã¥¯¥µ¥à¤Ï¸í¤ê¸¡½Ð¤Î°ì¤Ä¤ÎÊýË¡¤Ç¡¢Èæ³ÓŪ´Êñ¤Ë·×»»¤Ç¤­¤ë¤Î¤ÇÍѤ¤¤é¤ì¤Æ¤¤¤Þ¤¹¡£

QT98 4.0J¤Ç¥Á¥§¥Ã¥¯¥µ¥àÃͤòÊѹ¹¤·¤Æ¤â·ë²Ì¤ËÊѤï¤ê¤¬Ìµ¤«¤Ã¤¿¤Î¤Ï¡¢QT98 4.0J¤Ç¤Ï
¥Á¥§¥Ã¥¯¥µ¥à¤Î·×»»¤Ë¤è¤ëµ°Æ»Í×ÁǤο®ÍêÀ­¤Î³Îǧ¤ò¾Êά¤·¤Æ¤¤¤ë¤¿¤á¤À¤È»×¤ï¤ì¤Þ¤¹¡£

Æ£ÅĤµ¤ó¡¢jamsat-bb:5000 ¤ª¤á¤Ç¤È¤¦¤´¤¶¤¤¤Þ¤¹¡£

²¿¤«Ì㤨¤ë¤ÈÎɤ¤¤Ç¤¹¤Í¡£

¤Ç¤Ï¤Þ¤¿¡£

********************************************************
I support World Wide Fund for Nature(WWF) Japan.
--------------------------------------------------------
   ¥¤¥±¥À¥Ò¥í¥È    E-mail    :   hirotoi@attglobal.net
   ÃÓÅÄ   ¹°¿Í               :   JI1OWP@jamsat.or.jp

********************************************************
-------------------¡¡¡¡FO-29¡ÊJAS-2)¤Î¥Æ¥ì¥á¥È¥ê¤Ë´Ø¤¹¤ë¾ðÊó¡¡¡¡------------------------¡¡
 ==================================================================================

 £³¡Ë£Ê£Á£Ò£Ì ¤Î¥Û¡¼¥à¥Ú¡¼¥¸¤Ë±¿ÍÑͽÄ꤬µ­ºÜ¤µ¤ì¤Æ¤¤¤Þ¤·¤¿¤Î¤Ç¤´¾Ò²ð¤·¤Þ¤¹¡¥
       ¡Ê http://www.jarl.or.jp/Japanese/3_Fuji/uy.htm ¡Ë

        ¢£ ¤Õ¤¸£³¹æ¡¿FO¡¼29/JAS-2 ¢£  
  ¡¡
¡¡¡¡¡¡¡¡¡¡¡ö¡ö¡ö¡¡±¿ÍÑͽÄê¤Ë¤Ä¤¤¤Æ¡¡¡ö¡ö¡ö
¡¡¡¡¡¡¡¡
¡¡ £°£±·î£±£·Æü¡¡¡Á¡¡£°£±·î£³£±Æü¡¡¡¡¡¡¥¢¥Ê¥í¥°·Ï±¿ÍÑ
¡¡ £°£²·î£°£±Æü¡¡¡Á¡¡£°£²·î£°£¶Æü¡¡¡¡¡¡¥Ç¥¸¥¿¥ë·Ï£±£²£°£°£â£ð£ó¥á¡¼¥ë¥Ü¥Ã¥¯¥¹±¿ÍÑ
¡¡ £°£²·î£°£·Æü¡¡¡Á¡¡£°£²·î£²£±Æü¡¡¡¡¡¡¥¢¥Ê¥í¥°·Ï±¿ÍÑ
¡¡ £°£²·î£²£²Æü¡¡¡Á¡¡£°£²·î£²£·Æü¡¡¡¡¡¡¥Ç¥¸¥¿¥ë·Ï£±£²£°£°£â£ð£ó¥á¡¼¥ë¥Ü¥Ã¥¯¥¹±¿ÍÑ
¡¡ £°£²·î£²£¸Æü¡¡¡Á¡¡£°£³·î£°£µÆü¡¡¡¡¡¡¥¢¥Ê¥í¥°·Ï±¿ÍÑ

¡¡¡ö¤Ê¤ª¡¤±¿ÍÑͽÄê¤ÏÅÔ¹ç¤Ë¤è¤êÊѹ¹¤¹¤ë¤³¤È¤¬¤¢¤ê¤Þ¤¹¤Î¤Ç¤´Î»¾µ´ê¤¤¤Þ¤¹¡£

¡¡¾È²ñÀè¡¡¡§¡¡lab@jarl.or.jp

¡¡ºÇ¿·¤Î¾ðÊó¤Ï¥Æ¥ì¥Û¥ó¥µ¡¼¥Ó¥¹¡Ê¡§£°£³¡Ý£³£¹£´£²¡Ý£±£°£°£°¡Ë¤ò¤ªÊ¹¤­¤¯¤À¤µ¤¤¡£
¡¡¡¡¡¡
¡¡°Ê¸å¤Î±¿ÍѤËÉÕ¤­¤Þ¤·¤Æ¤Ï£²·î²¼½Ü¤Ë¤ªÃΤ餻¤¤¤¿¤·¤Þ¤¹¡£

-----------------------    FO-20¡ÊJAS-£±£â¡ËÆ»Í×ÁÇ   -------------------------------
 4¡Ë
 ¢£ µ°Æ»Í×ÁÇ£± ¡§½Ðŵ¤ÏFO-29¡Ö¤Õ¤¸£³¹æ¡×¤ËƱ¤¸¡¥
  
  FO-20
¡¡1 20480U 90013C   00023.97812117 -.00000019  00000-0  27371-4 0  1995
¡¡2 20480  99.0304 181.7269 0541046  24.2016 338.3514 12.83261942466652
 
 ¢£ µ°Æ»Í×ÁÇ£² ¡§½Ðŵ¤ÏFO-29¡Ö¤Õ¤¸£³¹æ¡×¤ËƱ¤¸¡¥
               
  Satellite: FO-20
¡¡Catalog number: 20480
¡¡Epoch time:      00023.97812117
¡¡Element set:     199
¡¡Inclination:       99.0304 deg
¡¡RA of node:       181.7269 deg
¡¡Eccentricity:    0.0541046
¡¡Arg of perigee:    24.2016 deg
¡¡Mean anomaly:     338.3514 deg
¡¡Mean motion:   12.83261942 rev/day
¡¡Decay rate:       -1.9e-07 rev/day^2
¡¡Epoch rev:           46665
¡¡Checksum:              284
--------------------------------------------------------------------------------
¡¡5¡Ë¡¡        ¢£ ¤Õ¤¸£²¹æ¡¿£Æ£Ï¡Ý£²£°/JAS-1£â ¢£  ¡¡   
            
¡¡¡¡¡¡¡¡¡¡¡¡¡¡¡¡¡¡¡¡¡Ö¤Õ¤¸£²¹æ¡×¡¡¸½¶·                                                                                  
             
   JAS-1b/FO-20¡Ê¤Õ¤¸£²¹æ¡Ë¤ÎÉÔ¶ñ¹çȯÀ¸¤Ë¤Ä¤¤¤Æ
    JAS-1b¡Ê¤Õ¤¸£²¹æ¡Ë¤Î£Ã£×¥Æ¥ì¥á¥È¥ê¿®¹æ¤Ë¡¤£±£¹£¹£·Ç¯£±£°·î£±£²Æü£±£²»þ
 ¡Ê£Ê£Ó£Ô¡Ë¤ÎÆüËܾå¶õÄ̲á»þ¡¤£³·å¤Î¿ô»ú¤¬·«¤êÊÖ¤µ¤ì¤ë¤Ï¤º¤¬£³¸Ä¤ÎĹ²»¤Î
  ·«¤êÊÖ¤·¤È¤Ê¤Ã¤Æ¤¤¤ë¤È¤¤¤¦°Û¾ï¤¬È¯¸«¤µ¤ì¤Þ¤·¤¿¡£¤³¤ÎÉÔ¶ñ¹ç¤Ï¼¡¤ÎÄ̲á»þ
  ¤«¤é¤Ï²óÉü¤·¤Æ¤¤¤Þ¤·¤¿¤¬£±£³Æü£±£µ»þ£²£°Ê¬¤ÎÄ̲á»þ¤ËºÆ¤Ó´Ñ¬¤µ¤ì¤Þ¤·¤¿¡£
  ±ÒÀ±¤Î¥¢¥Ê¥í¥°·ÏÃæ·Ñ¥â¡¼¥ÉÆ°ºî¤Ï°Û¾ï¤¬Ìµ¤¯¡¤Àµ¾ï»þ¤Î¥Æ¥ì¥á¥È¥êÆâÍƤ«¤é¤Ï
  ±ÒÀ±¤ÎÆ°ºî¤Ë°Û¾ï¤Ïǧ¤á¤é¤ì¤Þ¤»¤ó¡£½¾¤Ã¤Æ¡¤Ä¾¤Á¤Ë±ÒÀ±¤Î¥ß¥Ã¥·¥ç¥ó¤Ë±Æ¶Á¤¹
  ¤ë¤³¤È¤Ï̵¤¤¤ÈͽÁÛ¤µ¤ì¤Þ¤¹¤Î¤Ç¡¤ÅöÌ̤ϥ¢¥Ê¥í¥°·ÏÃæ·Ñ¥â¡¼¥É¤ò·Ñ³¤·¤Þ¤¹¡£
  ±ÒÀ±¤Ï´û¤ËÂǤÁ¾å¤²¤Æ¤«¤é£·Ç¯£¸¥ö·î¤ò·Ð¤Æ¤ª¤ê¤Þ¤¹¤Î¤Ç¡¤º£¸å¤Ï´Æ»ë¤ò¶¯²½¤¹
  ¤ëͽÄê¤Ç¤¹¡£¥¢¥Þ¥Á¥å¥¢³Æ°Ì¤Î¥ì¥Ý¡¼¥È¤ò¤ªÂÔ¤Á¤·¤Þ¤¹¡¥   
  
  °Ê¾å  http://www.jarl.or.jp/Japanese/3_Fuji/fuji.htm
                                           
   =============   JAS-2 ¡Ê¤Õ¤¸£³¹æ¡Ë¤È¸½ºß¤Þ¤Ç¤Î¾ðÊó   ===========
  
  £Á¡¥ÅÅÏäˤè¤ë¤Õ¤¸£³¹æ¤Î±¿ÍѾðÊó
      ¼ÒÃÄË¡¿ÍÆüËÜ¥¢¥Þ¥Á¥å¥¢Ï¢ÌÁ¤Ë¤è¤ë¥µ¡¼¥Ó¥¹
           £Ô£Å£Ì ¡¥   £°£³¡Ý £³£¹£´£² ¡Ý £±£°£°£°
  £Â¡¥¥¢¥Þ¥Á¥å¥¢ÌµÀþ£Æ£Á£Ø¥µ¡¼¥Ó¥¹
      £Ê£Á£Ò£Ì¤Ë¤è¤ë¤Õ¤¸£³¹æ¤Îµ°Æ»¾ðÊó¡Ê¥ª¡¼¥Ó¥Ã¥È¥«¥ì¥ó¥À¡¼¡Ë
         £Æ£Á£Ø £Î£ï¡¥  £°£³¡Ý £³£²£³£³ ¡Ý£°£°£µ£µ
  £Ã¡¥£×£×£×¥Ö¥é¥¦¥¶¤Ç¾ðÊó¤ò´Êñ¤Ë¸«¤ì¤ë¿Í¤Î¤¿¤á¤Ë£Ê£Á£Ó¡Ý£²
     ¤Õ¤¸£³¹æ¤Î±ÒÀ±¤È¤·¤Æ¤Î±¿ÍѤµ¤ì¤ë¤Þ¤Ç¤Î̾Á°¡Ë¤Î³µÍס¢ÂǤÁ¾å¤²
     ¤Þ¤Ç¤Î¾õ¶·¡¢±¿ÍÑÃæ¤Ë¤ª¤±¤ë¾õ¶·¤òÀâÌÀ¤·¤¿¥Û¡¼¥à¥Ú¡¼¥¸¤ò¾Ò²ð¤·
     ¤Æ¤ª¤­¤Þ¤¹¡¥
    ­¡ ¼ÒÃÄË¡¿ÍÆüËÜ¥¢¥Þ¥Á¥å¥¢ÌµÀþÏ¢ÌÁ¡Ê£Ê£Á£Ò£Ì¡Ë¤Î¥Û¡¼¥à¥Ú¡¼¥¸

          http://www.jarl.or.jp/Japanese/3_Fuji
 
    ­¢ ±§Ã賫ȯ»ö¶ÈÃġʣΣÁ£Ó£Ä£Á¡Ë¥Û¡¼¥à¥Ú¡¼¥¸ 
          http://www.nasda.go.jp/
         ÂǾ夲±ÒÀ±¡¡¡§Ãϵå´Ñ¬¥×¥é¥Ã¥È¥Õ¥©¡¼¥àµ»½Ñ±ÒÀ±¡ÊADEOS¡Ë 
                       ¥¢¥Þ¥Á¥å¥¢±ÒÀ±£³¹æ(JAS-2)
          http://yyy.tksc.nasda.go.jp/Home/Press/Press-j/jas-2_j.html        

  £Ä¡¥£Ê£Á£Í£Ó£Á£Ô¤Ë¤è¤ëµ°Æ»¾ðÊó¤Î³èÍÑ
        JAMSAT¤Î¥Û¡¼¥à¥Ú¡¼¥¸¤Þ¤¿¤Ïjamsat¡Ýkeps¤Îµ°Æ»Í×ÁǤè¤ê
      ±ÒÀ±¤Îµ°Æ»¾ðÊó¤òÆÀ¤ë¡¥
     £Ê£Á£Í£Ó£Á£Ô¥Û¡¼¥à¥Ú¡¼¥¸
               £Õ£Ò£Ì    http://www.jamsat.or.jp
       ¾åµ­¥Û¡¼¥à¥Ú¡¼¥¸¤Ç¤Ï³ÆÃϤǹԤï¤ì¤ë¥¢¥Þ¥Á¥å¥¢ÄÌ¿®±ÒÀ±¤Ë´Ø¤¹¤ë
      ¥ß¥å¡¼¥Æ¥£¥ó¥°¤Î¤ªÃΤ餻¤äÀ¤³¦¤Î¥¢¥Þ¥Á¥å¥¢±ÒÀ±¤Ë´Ø¤¹¤ë¾ðÊó¤¬
      ËþºÜ¤µ¤ì¤Æ¤¤¤Þ¤¹¡¥
¡¡=========================================================================
  
¡¡    £Ê£Á£Í£Ó£Á£Ô¤Î¥á¥ó¥Ð¡¼¤Î¤´¶¨ÎϤˤè¤ê£Ê£È£¶£Í£Í£Å¡Ê¹â»³ ½¨Â¤¡Ë¤¬
    ¼¹É®¡¦ÊÔ½¸¤òôÅö¤·¤Æ¤ª¤ê¤Þ¤¹¡¥¤´»ØŦ¤Î°Õ¸«¡¢µ¿Ìä¤ä¤³¤Î¤è¤¦¤Ë¤·¤¿¤é
    ¤È¤¤¤¦¥¢¥¤¥Ç¥¢¤¬¤¢¤ê¤Þ¤·¤¿¤é¾®¤µ¤Ê¤³¤È¤Ç¤â¤«¤Þ¤¤¤Þ¤»¤ó¤Î¤Çµ¤·Ú¤Ë²¼
    µ­¥¢¥É¥ì¥¹¤Þ¤Ç¤´Ï¢Íí¤¯¤À¤µ¤¤¡¥£ê£á£í£ó£á£ô¡Ý£î£å£÷£ó¤«¤é£ê£á£ó£²
    £é£î£æ£ï¤Ø¤ÎžºÜ¤ò£Ê£È£´£Ð£È£×¶Éºä°æ¤µ¤ó¤ËôÅö¤·¤Æ夤¤Æ¤ª¤ê¤Þ¤¹¡¥
  
                  E-mail : jh6mme@jamsat.or.jp : jh4phw@jamsat.or.jp
 ===============================   £Å£Î£Ä  ===============================